OneWeb SL0559

operational
NORAD ID: 56060 Int'l Des: 2023-043 Owner: ONEWEBN Country: UK Constellation: oneweb
LEOCIRCULARPOLARONEWEB_TYPE

About OneWeb SL0559

Description loading...

Live Position

Loading 3D Globe...

Upcoming Passes

Altitude History

Altitude vs Time

uPlot chart will show altitude changes over time

Two-Line Element Set

1 56060U 23043Q 25304.52644584 .00000159 00000-0 35402-3 0 9993
2 56060 87.9170 289.5967 0002075 95.7492 264.3879 13.21827674128042
Epoch: Oct 31, 2025 • Age: 10 hours

Current Status

Altitude 1181.5 km
Velocity 7.27 km/s
Sub-Earth Point 35.21°N, 90.85°E
Launch Date Mar 26, 2023
Age 2.6 years
Type internet

Technical Details

Classification Payload
Mass 148.00 kg
Dry Mass 140.00 kg
Total Mass 148.00 kg
Length 1.30 m
Diameter 1.00 m
Span 5.00 m
Shape Trapezoid+2 pan
Manufacturer ONEWUS
Bus Type ARROW
Phase Status In Orbit
Owner/State ONEWEBN/UK

Large Constellations

Loading constellations...